TimeCST,TemperatureF,Dew PointF,Humidity,Sea Level PressureIn,VisibilityMPH,Wind Direction,Wind SpeedMPH,Gust SpeedMPH,PrecipitationIn,Events,Conditions,WindDirDegrees,DateUTC
12:55 AM,25.9,17.6,71,30.01,10.0,North,18.4,-,N/A,,Clear,350,2013-02-22 06:55:00
1:55 AM,25.9,16.7,68,30.03,10.0,North,11.5,-,N/A,,Clear,360,2013-02-22 07:55:00
2:55 AM,25.3,16.0,68,30.02,10.0,North,15.0,23.0,N/A,,Clear,350,2013-02-22 08:55:00
3:55 AM,24.6,16.0,70,30.02,10.0,North,9.2,-,N/A,,Clear,350,2013-02-22 09:55:00
4:55 AM,24.4,16.0,70,30.02,10.0,North,16.1,-,N/A,,Clear,360,2013-02-22 10:55:00
5:55 AM,24.3,15.3,69,30.08,10.0,North,10.4,-,N/A,,Clear,350,2013-02-22 11:55:00
6:55 AM,23.9,15.1,69,30.11,10.0,North,4.6,-,N/A,,Clear,360,2013-02-22 12:55:00
7:55 AM,24.1,15.6,70,30.14,10.0,North,6.9,-,N/A,,Clear,360,2013-02-22 13:55:00
8:55 AM,26.8,15.8,63,30.18,10.0,NNE,9.2,-,N/A,,Clear,20,2013-02-22 14:55:00
9:55 AM,28.4,16.2,60,30.20,10.0,NNE,8.1,-,N/A,,Clear,30,2013-02-22 15:55:00
10:55 AM,31.3,17.6,57,30.17,10.0,NNE,9.2,-,N/A,,Clear,30,2013-02-22 16:55:00
11:55 AM,34.3,19.8,55,30.16,10.0,North,6.9,-,N/A,,Clear,360,2013-02-22 17:55:00
12:55 PM,36.7,20.5,52,30.13,10.0,ENE,5.8,-,N/A,,Clear,60,2013-02-22 18:55:00
1:55 PM,39.2,22.3,51,30.10,10.0,NNE,8.1,-,N/A,,Clear,30,2013-02-22 19:55:00
2:55 PM,41.5,22.5,47,30.07,10.0,North,6.9,-,N/A,,Clear,10,2013-02-22 20:55:00
3:55 PM,42.1,23.9,49,30.07,10.0,North,10.4,-,N/A,,Clear,350,2013-02-22 21:55:00
4:55 PM,41.2,23.2,49,30.06,10.0,North,10.4,-,N/A,,Scattered Clouds,350,2013-02-22 22:55:00
5:55 PM,38.3,23.5,55,30.07,10.0,North,10.4,-,N/A,,Partly Cloudy,10,2013-02-22 23:55:00
6:55 PM,36.3,22.6,58,30.10,10.0,North,9.2,-,N/A,,Mostly Cloudy,350,2013-02-23 00:55:00
7:55 PM,33.1,22.8,66,30.14,10.0,ENE,8.1,-,N/A,,Clear,60,2013-02-23 01:55:00
8:55 PM,31.1,22.5,70,30.16,10.0,NNE,5.8,-,N/A,,Clear,30,2013-02-23 02:55:00
9:55 PM,28.8,21.9,76,30.16,10.0,NNE,6.9,-,N/A,,Clear,30,2013-02-23 03:55:00
10:55 PM,27.3,21.6,79,30.15,10.0,North,6.9,-,N/A,,Clear,10,2013-02-23 04:55:00
11:55 PM,27.7,21.2,77,30.13,10.0,North,6.9,-,N/A,,Clear,10,2013-02-23 05:55:00